Location: Béaulencourt
(50.0796°N, 2.8795°E)
Time: 04:28:28
(UTC+00:00)

ARIANE 6 FM1 Upper Stage - Pass Details

Date: 20 March 2026
Orbit: 525 x 604 km, 62.0° (Epoch: 17 April)

Event Time Altitude Azimuth Distance (km) Brightness Sun altitude
Exits shadow 04:21:39 16° 300° (WNW) 1,436 4.4 -15.0°
Maximum altitude 04:23:34 22° 337° (NNW) 1,189 4.3 -14.7°
Drops below altitude 10° 04:26:46 10° 30° (NNE) 1,783 5.9 -14.2°
Sets 04:29:19 0° 46° (NE) 2,669 7.3 -13.8°
